Waarnemingen

Advertentie
Mijn weer
Bastia, Frankrijk (7790): temperatuur & dauwpunt: 13.04.2019 06:00:00 - 19.04.2019 06:00:00 (CEST)Bastia, Frankrijk (7790): temperatuur 5cm: 13.04.2019 06:00:00 - 19.04.2019 06:00:00 (CEST)Bastia, Frankrijk (7790): temperatuur -20cm & temperatuur -100cm: 13.04.2019 06:00:00 - 19.04.2019 06:00:00 (CEST)Bastia, Frankrijk (7790): windsnelheid & windstoten: 13.04.2019 06:00:00 - 19.04.2019 06:00:00 (CEST)Bastia, Frankrijk (7790): windrichting: 13.04.2019 06:00:00 - 19.04.2019 06:00:00 (CEST)Bastia, Frankrijk (7790): luchtdruk: 13.04.2019 06:00:00 - 19.04.2019 06:00:00 (CEST)Bastia, Frankrijk (7790): zicht: 13.04.2019 06:00:00 - 19.04.2019 06:00:00 (CEST)Bastia, Frankrijk (7790): Zonneschijnduur: 13.04.2019 06:00:00 - 19.04.2019 06:00:00 (CEST)Bastia, Frankrijk (7790): neerslag: 13.04.2019 06:00:00 - 19.04.2019 06:00:00 (CEST)
Datum & Tijd tt [°C] td [°C] tt 5cm [°C] tt -20cm [°C] tt -100cm [°C] ff [km/u] ff [kn] fx [km/u] fx [kn] dd ppp [hPa] vv [km] sd [min] rr [mm]
19.04.2019 06:00:00 9,1 7,4 6,8 14,7 13,7 6 4 10 6 ZW 1025,6 20 0 0,0
19.04.2019 05:00:00 9,6 7,9 6,9 14,7 13,7 7 4 12 7 WZW 1025,1 20 0 0,2
19.04.2019 04:00:00 10,0 8,4 7,0 14,7 13,7 5 3 12 6 ZW 1024,8 20 0 0,0
19.04.2019 03:00:00 10,4 8,8 7,7 14,8 13,7 6 3 12 6 ZW 1024,5 18 0 0,0
19.04.2019 02:00:00 10,8 9,4 7,7 14,8 13,7 6 3 10 6 WZW 1024,7 17 0 0,0
19.04.2019 01:00:00 11,5 9,9 8,4 14,7 13,6 7 4 10 5 ZW 1024,7 13 0 0,0
19.04.2019 00:00:00 12,4 10,8 9,1 14,7 13,7 4 2 9 5 WZW 1024,7 15 0 0,0
18.04.2019 23:00:00 12,9 10,8 9,6 14,7 13,7 2 1 7 4 WZW 1024,3 14 0 0,0
18.04.2019 22:00:00 14,2 11,7 11,2 14,6 13,7 5 3 10 5 WNW 1023,7 19 0 0,0
18.04.2019 21:00:00 14,3 12,2 11,1 14,5 13,7 8 4 14 8 N 1022,9 20 0 0,0
18.04.2019 20:00:00 14,9 11,7 12,8 14,4 13,7 3 1 18 10 NW 1022,1 20 26 0,0
18.04.2019 19:00:00 17,2 11,5 17,7 14,3 13,7 10 5 22 12 OZO 1021,5 20 60 0,0
18.04.2019 18:00:00 18,5 11,6 22,0 14,2 13,7 13 7 23 12 ZO 1021,3 31 60 0,0
18.04.2019 17:00:00 19,5 11,3 25,3 14,1 13,7 11 6 18 10 OZO 1021,5 20 60 0,0
18.04.2019 16:00:00 19,3 10,8 30,0 14,1 13,7 12 6 23 12 OZO 1021,7 28 60 0,0
18.04.2019 15:00:00 19,4 10,1 32,5 14,0 13,7 12 7 23 13 OZO 1021,9 26 60 0,0
18.04.2019 14:00:00 19,1 9,0 32,0 14,0 13,7 14 7 29 16 OZO 1022,3 26 60 0,0
18.04.2019 13:00:00 18,6 9,9 29,6 14,0 13,6 15 8 28 15 O 1022,3 26 60 0,0
18.04.2019 12:00:00 18,3 10,9 23,9 14,0 13,6 14 8 23 12 O 1022,7 27 60 0,0
18.04.2019 11:00:00 18,8 11,8 17,7 14,1 13,6 10 6 20 11 O 1022,6 26 60 0,0
18.04.2019 10:00:00 18,0 10,4 13,2 14,2 13,7 4 2 11 6 ONO 1022,6 31 60 0,0
18.04.2019 09:00:00 14,8 8,1 8,6 14,2 13,6 3 2 9 5 WZW 1022,3 34 60 0,0
18.04.2019 08:00:00 10,7 6,8 5,3 14,3 13,6 7 4 10 6 ZW 1022,1 37 60 0,0
18.04.2019 07:00:00 7,9 5,2 4,5 14,3 13,6 7 4 11 6 ZW 1021,6 36 2 0,0
18.04.2019 06:00:00 8,0 5,1 5,1 14,4 13,6 4 2 12 7 WZW 1021,3 20 0 0,0
18.04.2019 05:00:00 8,4 5,1 5,5 14,4 13,6 7 4 13 7 ZW 1021,3 20 0 0,0
18.04.2019 04:00:00 8,5 5,8 5,4 14,5 13,6 8 5 13 7 ZW 1021,6 20 0 0,0
18.04.2019 03:00:00 8,6 5,7 5,6 14,5 13,6 7 4 12 7 ZW 1021,9 20 0 0,0
18.04.2019 02:00:00 8,5 5,9 5,8 14,5 13,6 8 4 10 5 ZZW 1022,1 20 0 0,0
18.04.2019 01:00:00 9,0 6,1 6,1 14,5 13,6 8 4 13 7 ZW 1022,0 20 0 0,0
18.04.2019 00:00:00 9,9 6,4 6,1 14,5 13,6 8 5 12 6 ZW 1021,8 20 0 0,0
17.04.2019 23:00:00 10,1 6,8 6,4 14,5 13,6 7 4 12 7 ZW 1021,6 20 0 0,0
17.04.2019 22:00:00 11,2 7,3 6,9 14,4 13,6 5 3 8 4 WZW 1021,5 20 0 0,0
17.04.2019 21:00:00 12,3 8,0 7,5 14,3 13,6 5 3 6 4 W 1020,8 37 0 0,0
17.04.2019 20:00:00 14,2 8,2 9,8 14,2 13,6 4 2 9 5 OZO 1020,1 28 14 0,0
17.04.2019 19:00:00 16,7 8,1 15,1 14,1 13,6 5 3 13 7 O 1020,0 45 60 0,0
17.04.2019 18:00:00 17,5 7,8 19,5 14,0 13,6 9 5 17 9 O 1020,3 19 60 0,0
17.04.2019 17:00:00 18,2 7,0 23,4 13,9 13,6 9 5 20 11 ONO 1020,3 52 60 0,0
17.04.2019 16:00:00 18,6 8,0 29,4 13,8 13,6 11 6 19 10 O 1020,6 52 60 0,0
17.04.2019 15:00:00 18,8 9,0 32,1 13,8 13,6 11 6 21 12 O 1020,8 48 60 0,0
17.04.2019 14:00:00 18,0 8,0 30,3 13,8 13,6 11 6 21 11 O 1020,8 44 60 0,0
17.04.2019 13:00:00 18,5 10,8 29,0 13,8 13,6 12 6 19 10 O 1021,1 49 60 0,0
17.04.2019 12:00:00 18,0 9,3 21,7 13,8 13,6 8 4 17 9 O 1021,5 56 60 0,0
17.04.2019 11:00:00 17,1 9,8 16,9 13,8 13,6 8 4 21 12 NO 1021,5 55 60 0,0
17.04.2019 10:00:00 16,4 10,5 13,1 13,9 13,6 6 3 22 12 NNO 1021,2 53 60 0,0
17.04.2019 09:00:00 14,8 10,0 9,0 13,9 13,6 3 2 18 10 WNW 1021,1 46 60 0,0
17.04.2019 08:00:00 11,3 7,8 7,1 14,0 13,6 5 3 15 8 NW 1021,2 22 60 0,0
17.04.2019 07:00:00 9,8 6,9 6,4 14,0 13,6 10 5 20 11 ZW 1020,7 20 1 0,0
17.04.2019 06:00:00 9,4 7,3 5,6 14,1 13,6 9 5 14 8 ZW 1020,5 20 0 0,0
17.04.2019 05:00:00 9,0 7,4 5,2 14,1 13,6 7 4 13 7 ZW 1020,5 20 0 0,0
17.04.2019 04:00:00 9,0 7,6 5,2 14,1 13,6 6 4 9 5 ZW 1020,7 20 0 0,0
17.04.2019 03:00:00 9,1 7,7 5,6 14,2 13,5 5 3 9 5 ZZW 1020,8 20 0 0,0
17.04.2019 02:00:00 9,2 7,6 6,3 14,2 13,6 6 3 9 5 Z 1020,9 20 0 0,0
17.04.2019 01:00:00 11,1 8,3 7,5 14,2 13,5 5 3 8 4 ZW 1021,0 47 0 0,0
17.04.2019 00:00:00 12,7 9,1 10,5 14,2 13,6 4 2 16 9 Z 1021,1 56 0 0,0
16.04.2019 23:00:00 13,2 9,6 10,9 14,1 13,5 11 6 17 9 Z 1020,8 56 0 0,0
16.04.2019 22:00:00 14,1 9,3 11,9 14,1 13,6 9 5 16 9 ZW 1020,7 60 0 0,0
16.04.2019 21:00:00 13,8 10,0 12,0 14,1 13,5 5 3 8 4 ZW 1020,6 33 0 0,0
16.04.2019 20:00:00 14,5 9,3 12,9 14,0 13,5 4 2 8 4 WNW 1020,0 34 0 0,0
16.04.2019 19:00:00 15,0 9,8 13,9 14,0 13,5 4 2 11 6 Z 1019,9 41 0 0,0
16.04.2019 18:00:00 16,2 8,7 17,1 13,9 13,5 4 2 24 13 NO 1019,6 60 0 0,0
16.04.2019 17:00:00 16,4 8,9 18,1 13,9 13,5 14 8 24 13 NW 1019,5 47 0 0,0
16.04.2019 16:00:00 17,1 9,5 17,7 13,8 13,5 12 6 24 13 NNW 1019,6 46 0 0,0
16.04.2019 15:00:00 16,5 9,2 17,6 13,8 13,5 6 3 19 11 O 1020,0 48 0 0,0
16.04.2019 14:00:00 16,1 9,0 17,4 13,8 13,5 11 6 23 13 Z 1020,2 38 0 0,0
16.04.2019 13:00:00 17,8 8,1 19,8 13,8 13,5 19 11 29 16 NNW 1020,2 60 0 0,0
16.04.2019 12:00:00 16,6 8,8 17,7 13,9 13,5 9 5 15 8 N 1020,2 20 0 0,0
16.04.2019 11:00:00 15,6 10,1 16,0 13,9 13,5 5 3 11 6 NNW 1019,8 27 0 0,0
16.04.2019 10:00:00 15,3 10,3 14,3 14,0 13,5 5 3 14 8 N 1019,5 29 20 0,0
16.04.2019 09:00:00 14,1 8,1 10,2 14,1 13,5 4 2 10 5 ZW 1019,6 34 30 0,0
16.04.2019 08:00:00 11,2 6,1 6,7 14,1 13,5 6 3 11 6 ZW 1019,3 58 27 0,0
16.04.2019 07:00:00 9,3 5,3 5,8 14,2 13,5 7 4 14 7 ZZW 1018,9 50 0 0,0
16.04.2019 06:00:00 8,5 4,9 5,4 14,2 13,5 8 4 12 7 ZZW 1018,4 20 0 0,0
16.04.2019 05:00:00 8,3 5,2 5,1 14,3 13,5 8 4 10 6 ZW 1018,5 20 0 0,0
16.04.2019 04:00:00 8,1 4,9 4,8 14,3 13,5 9 5 12 7 ZW 1018,7 20 0 0,0
16.04.2019 03:00:00 8,0 5,1 4,9 14,3 13,4 8 4 11 6 ZW 1018,8 20 0 0,0
16.04.2019 02:00:00 8,8 5,4 5,1 14,4 13,5 7 4 10 5 ZW 1019,3 20 0 0,0
16.04.2019 01:00:00 9,3 5,5 5,5 14,4 13,5 7 4 10 6 ZW 1019,6 20 0 0,0
16.04.2019 00:00:00 10,1 5,7 5,5 14,4 13,5 4 2 9 5 W 1019,6 37 0 0,0
15.04.2019 23:00:00 10,5 5,0 6,5 14,3 13,4 3 2 17 9 NNW 1019,3 49 0 0,0
15.04.2019 22:00:00 10,9 5,6 6,4 14,3 13,4 10 5 15 8 ZW 1019,3 48 0 0,0
15.04.2019 21:00:00 11,0 6,5 7,4 14,2 13,5 8 5 12 7 ZW 1018,8 34 0 0,0
15.04.2019 20:00:00 13,8 5,4 9,3 14,1 13,5 8 4 14 7 W 1018,4 47 13 0,0
15.04.2019 19:00:00 16,0 5,6 14,1 14,0 13,4 10 5 19 11 NW 1018,3 55 50 0,0
15.04.2019 18:00:00 16,8 5,7 17,4 13,9 13,4 11 6 26 14 NNW 1018,2 59 58 0,0
15.04.2019 17:00:00 17,4 5,7 21,5 13,8 13,5 16 9 26 14 NNW 1018,3 40 60 0,0
15.04.2019 16:00:00 17,5 5,4 25,8 13,8 13,4 14 8 28 15 N 1018,4 34 60 0,0
15.04.2019 15:00:00 17,7 5,6 30,4 13,7 13,4 15 8 29 16 N 1018,7 32 60 0,0
15.04.2019 14:00:00 17,8 5,0 27,3 13,7 13,4 16 9 30 16 N 1018,8 30 60 0,0
15.04.2019 13:00:00 17,5 5,4 26,8 13,7 13,4 14 8 27 14 N 1018,7 31 60 0,0
15.04.2019 12:00:00 16,6 6,4 21,2 13,7 13,4 10 5 24 13 N 1018,6 30 60 0,0
15.04.2019 11:00:00 16,1 8,3 16,0 13,7 13,4 12 6 23 12 N 1018,4 26 54 0,0
15.04.2019 10:00:00 15,1 8,1 14,5 13,8 13,4 13 7 23 12 N 1018,1 34 48 0,0
15.04.2019 09:00:00 14,9 7,2 11,3 13,8 13,4 11 6 20 11 NNW 1017,6 55 34 0,0
15.04.2019 08:00:00 12,4 7,9 9,9 13,8 13,4 5 3 14 7 ZW 1017,1 56 2 0,0
15.04.2019 07:00:00 12,2 6,2 9,9 13,8 13,4 7 4 27 15 WNW 1016,4 59 0 0,0
15.04.2019 06:00:00 12,2 6,7 10,6 13,8 13,4 12 6 20 11 NW 1015,7 60 0 0,0
15.04.2019 05:00:00 12,4 7,5 11,5 13,9 13,4 9 5 31 17 NW 1015,6 60 0 0,0
15.04.2019 04:00:00 12,8 7,7 11,7 13,9 13,4 22 12 42 23 N 1015,2 58 0 0,0
15.04.2019 03:00:00 12,7 7,2 11,3 13,9 13,4 26 14 41 22 N 1014,6 60 0 0,0
15.04.2019 02:00:00 12,3 7,4 10,2 13,9 13,4 29 15 43 23 N 1014,4 60 0 0,0
15.04.2019 01:00:00 11,7 6,8 9,1 13,9 13,4 19 10 34 19 NNW 1014,2 60 0 0,0
15.04.2019 00:00:00 11,4 6,5 9,4 13,9 13,4 18 10 31 17 NW 1013,8 60 0 0,0
14.04.2019 23:00:00 11,7 6,8 10,4 13,9 13,4 16 9 34 18 NNW 1013,2 60 0 0,0
14.04.2019 22:00:00 12,2 6,5 10,7 13,9 13,4 19 10 33 18 NW 1012,4 60 0 0,0
14.04.2019 21:00:00 12,3 6,8 10,9 13,9 13,4 23 12 37 20 WNW 1011,4 60 0 0,0
14.04.2019 20:00:00 12,1 6,4 10,9 13,8 13,4 26 14 44 24 NW 1010,7 60 1 0,0
14.04.2019 19:00:00 12,5 6,3 12,0 13,7 13,4 24 13 42 23 WNW 1010,1 47 29 0,0
14.04.2019 18:00:00 13,6 7,1 13,1 13,7 13,4 26 14 54 29 NW 1009,7 60 17 0,0
14.04.2019 17:00:00 13,3 5,9 14,2 13,6 13,4 31 17 65 35 NW 1009,1 42 15 0,0
14.04.2019 16:00:00 15,7 6,9 20,6 13,6 13,4 43 23 70 38 NNW 1008,3 20 57 0,0
14.04.2019 15:00:00 15,7 5,0 17,7 13,5 13,4 35 19 61 33 NW 1007,6 26 37 0,0
14.04.2019 14:00:00 17,0 4,6 20,2 13,5 13,4 31 17 46 25 NNW 1007,7 34 49 0,0
14.04.2019 13:00:00 16,7 6,2 16,8 13,6 13,4 27 15 38 21 NNW 1007,8 40 28 0,0
14.04.2019 12:00:00 16,5 10,8 22,4 13,6 13,3 14 7 24 13 O 1008,1 36 60 0,0
14.04.2019 11:00:00 15,8 10,3 16,9 13,7 13,3 11 6 21 12 O 1008,5 34 57 0,0
14.04.2019 10:00:00 15,3 10,7 12,7 13,7 13,4 9 5 16 9 O 1008,9 31 60 0,0
14.04.2019 09:00:00 12,4 8,5 6,3 13,8 13,4 4 2 9 5 WZW 1009,1 41 60 0,0
14.04.2019 08:00:00 8,2 6,7 3,4 13,8 13,3 4 2 7 4 ZZW 1009,5 46 56 0,0
14.04.2019 07:00:00 6,2 5,2 3,2 13,9 13,3 8 4 10 5 ZW 1009,3 34 0 0,0
14.04.2019 06:00:00 6,8 5,4 3,4 14,0 13,3 5 3 9 5 ZZW 1009,5 20 0 0,0
14.04.2019 05:00:00 7,1 5,7 4,0 14,0 13,3 6 4 10 5 ZW 1010,2 20 0 0,0
14.04.2019 04:00:00 7,7 6,0 4,6 14,1 13,4 7 4 10 6 ZW 1010,9 20 0 0,0
14.04.2019 03:00:00 7,9 6,0 5,0 14,1 13,3 6 4 11 6 ZZW 1011,4 20 0 0,0
14.04.2019 02:00:00 9,4 6,8 5,7 14,2 13,3 5 3 10 6 ZW 1012,1 20 0 0,0
14.04.2019 01:00:00 8,8 6,8 5,3 14,2 13,3 5 3 11 6 ZZW 1012,9 20 0 0,0
14.04.2019 00:00:00 8,3 6,4 5,4 14,2 13,3 8 4 11 6 ZZW 1013,1 20 0 0,0
13.04.2019 23:00:00 8,5 6,6 5,5 14,1 13,3 6 4 9 5 ZZW 1013,1 20 0 0,0
13.04.2019 22:00:00 9,4 7,2 6,2 14,1 13,3 6 3 10 6 ZZW 1013,4 47 0 0,0
13.04.2019 21:00:00 10,8 7,8 7,2 14,0 13,3 6 3 9 5 ZW 1013,2 30 0 0,0
13.04.2019 20:00:00 13,1 7,5 9,7 13,9 13,3 4 2 26 14 N 1012,4 59 22 0,0
13.04.2019 19:00:00 15,0 8,0 14,0 13,8 13,3 9 5 21 11 N 1012,5 53 60 0,0
13.04.2019 18:00:00 15,7 8,4 17,0 13,7 13,3 11 6 24 13 N 1012,3 48 60 0,0
13.04.2019 17:00:00 16,1 8,3 20,1 13,7 13,3 16 9 27 15 N 1012,4 49 60 0,0
13.04.2019 16:00:00 16,2 7,1 24,8 13,6 13,3 19 10 29 16 N 1012,6 40 60 0,0
13.04.2019 15:00:00 16,9 8,3 24,0 13,6 13,3 19 10 39 21 N 1013,0 44 56 0,0
13.04.2019 14:00:00 16,3 8,5 22,9 13,5 13,3 18 10 31 17 N 1013,3 52 52 0,0
13.04.2019 13:00:00 15,7 9,1 21,4 13,5 13,3 16 9 31 17 N 1013,6 60 52 0,0
13.04.2019 12:00:00 15,3 8,3 16,3 13,5 13,3 16 8 27 15 N 1013,5 60 27 0,0
13.04.2019 11:00:00 14,6 9,8 15,7 13,6 13,3 16 9 27 15 N 1013,4 32 42 0,0
13.04.2019 10:00:00 14,0 10,2 12,1 13,6 13,3 10 5 19 11 NW 1013,2 60 25 0,0
13.04.2019 09:00:00 11,7 9,8 11,1 13,6 13,3 8 5 12 6 WNW 1012,9 58 0 0,0
13.04.2019 08:00:00 11,1 9,7 10,9 13,7 13,3 6 4 11 6 WNW 1013,0 45 0 0,2
13.04.2019 07:00:00 11,1 9,7 10,6 13,7 13,3 7 4 10 5 N 1012,7 28 0 0,0
13.04.2019 06:00:00 11,2 9,6 10,7 13,7 13,3 6 3 9 5 WZW 1012,5 52 0 0,0

tt = temperatuur
td = dauwpunt
tt 5cm = temperatuur 5cm
tt -20cm = temperatuur -20cm
tt -100cm = temperatuur -100cm
ff = windsnelheid
fx = windstoten
dd = windrichting
ppp = luchtdruk
vv = zicht
sd = Zonneschijnduur
rr = neerslag

Weerstations in de omgeving